Date String (YYYY-MM-DD hh:mm:ss) UTC,Instrument flags,absolute air pressure of the measurement (hPa),sample flow rate (lpm),inlet stack bypass flow (lpm),air temperature of the measurement (°C),ambient temperature measured by the external sensor (°C),aerosol sample conditioner tube jacket temperature (°C),OPC LED temperature (°C),internal box temperature (°C),relative humidity of the measurement (%),span deviation,mass concentration of particles derived from Lorenz-Mie calculation of OPC scattering (μg/m³),mass concentration of particles derived from Lorenz-Mie calculation of OPC scattering (μg/m³),mass concentration of particles derived from Lorenz-Mie calculation of OPC scattering (μg/m³)
DateTimeUTC,F1_M11,P_M11,Q1_M11,Q2_M11,T1_M11,T2_M11,T3_M11,T4_M11,T5_M11,U1_M11,ZSPAN_M11,X0_M11,X2_M11,X1_M11
2023-12-30 10:00:00,SystemResetWarning,0830.7,4.99,000.00,021.9,020.9,000.0,030.2,023.2,8.8,0000.0,0011.83,0004.03,0003.42
2023-12-30 10:01:00,SystemResetWarning,0830.7,4.99,000.00,021.9,020.9,000.0,030.2,023.2,8.8,0000.0,0012.05,0004.03,0003.41
2023-12-30 10:02:00,SystemResetWarning,0830.7,4.99,000.00,021.9,020.9,000.0,030.2,023.2,8.8,0000.0,0011.81,0004.02,0003.39
2023-12-30 10:03:00,SystemResetWarning,0830.7,4.99,000.00,021.9,020.9,000.0,030.2,023.2,8.8,0000.0,0011.35,0004.02,0003.39
2023-12-30 10:04:00,SystemResetWarning,0830.7,5.00,000.00,021.9,020.9,000.0,030.2,023.2,8.8,0000.0,0011.13,0004.00,0003.38
2023-12-30 10:05:00,SystemResetWarning,0830.7,5.00,000.00,021.8,020.9,000.0,030.2,023.2,8.8,0000.0,0010.89,0003.99,0003.37
2023-12-30 10:06:00,SystemResetWarning,0830.7,5.02,000.00,021.8,020.9,000.0,030.2,023.2,8.8,0000.0,0010.75,0003.98,0003.36
2023-12-30 10:07:00,SystemResetWarning,0830.7,5.01,000.00,021.8,020.9,000.0,030.2,023.2,8.8,0000.0,0010.90,0003.97,0003.35
2023-12-30 10:08:00,SystemResetWarning,0830.7,5.00,000.00,021.8,020.9,000.0,030.2,023.2,8.8,0000.0,0010.84,0003.96,0003.34
2023-12-30 10:09:00,SystemResetWarning,0830.8,4.99,000.00,021.8,020.9,000.0,030.2,023.2,8.8,0000.0,0011.06,0003.93,0003.33
2023-12-30 10:10:00,SystemResetWarning,0830.7,5.00,000.00,021.8,020.9,000.0,030.2,023.2,8.9,0000.0,0011.15,0003.93,0003.32
2023-12-30 10:11:00,SystemResetWarning,0830.7,5.00,000.00,021.8,020.9,000.0,030.2,023.1,8.9,0000.0,0010.76,0003.95,0003.32
2023-12-30 10:12:00,SystemResetWarning,0830.7,5.00,000.00,021.8,020.9,000.0,030.2,023.2,8.9,0000.0,0011.24,0003.92,0003.32
2023-12-30 10:13:00,SystemResetWarning,0830.7,5.00,000.00,021.8,020.8,000.0,030.2,023.2,8.9,0000.0,0011.22,0003.90,0003.31
2023-12-30 10:14:00,SystemResetWarning,0830.7,5.00,000.00,021.8,020.8,000.0,030.1,023.1,8.8,0000.0,0010.70,0003.88,0003.30
2023-12-30 10:15:00,SystemResetWarning,0830.7,5.00,000.00,021.8,020.8,000.0,030.1,023.1,8.8,0000.0,0010.40,0003.88,0003.28
2023-12-30 10:16:00,SystemResetWarning,0830.7,5.00,000.00,021.8,020.8,000.0,030.1,023.1,8.8,0000.0,0010.40,0003.88,0003.29
2023-12-30 10:17:00,SystemResetWarning,0830.7,5.00,000.00,021.8,020.8,000.0,030.1,023.1,8.7,0000.0,0010.44,0003.88,0003.29
2023-12-30 10:18:00,SystemResetWarning,0830.7,5.00,000.00,021.8,020.8,000.0,030.1,023.1,8.7,0000.0,0009.94,0003.87,0003.29
2023-12-30 10:19:00,SystemResetWarning,0830.7,5.00,000.00,021.8,020.8,000.0,030.1,023.1,8.7,0000.0,0009.92,0003.85,0003.28
2023-12-30 10:20:00,SystemResetWarning,0830.7,5.00,000.00,021.7,020.7,000.0,030.1,023.1,8.6,0000.0,0009.69,0003.86,0003.28
2023-12-30 10:21:00,SystemResetWarning,0830.7,5.00,000.00,021.7,020.7,000.0,030.1,023.1,8.6,0000.0,0009.85,0003.84,0003.28
2023-12-30 10:22:00,SystemResetWarning,0830.7,5.00,000.00,021.7,020.7,000.0,030.1,023.1,8.6,0000.0,0009.16,0003.81,0003.27
2023-12-30 10:23:00,SystemResetWarning,0830.7,5.00,000.00,021.7,020.7,000.0,030.1,023.1,8.6,0000.0,0009.00,0003.81,0003.28
2023-12-30 10:24:00,SystemResetWarning,0830.7,5.00,000.00,021.7,020.7,000.0,030.1,023.1,8.5,0000.0,0009.90,0003.81,0003.27
2023-12-30 10:25:00,SystemResetWarning,0830.8,5.00,000.00,021.7,020.7,000.0,030.1,023.1,8.5,0000.0,0009.80,0003.79,0003.27
2023-12-30 10:26:00,SystemResetWarning,0830.8,5.00,000.00,021.7,020.7,000.0,030.1,023.1,8.5,0000.0,0009.76,0003.76,0003.29
2023-12-30 10:27:00,SystemResetWarning,0830.8,5.00,000.00,021.7,020.7,000.0,030.1,023.0,8.6,0000.0,0009.61,0003.79,0003.30
2023-12-30 10:28:00,SystemResetWarning,0830.8,5.00,000.00,021.7,020.7,000.0,030.1,023.1,8.5,0000.0,0009.61,0003.81,0003.32
2023-12-30 10:29:00,SystemResetWarning,0830.8,5.00,000.00,021.7,020.7,000.0,030.0,023.1,8.5,0000.0,0009.54,0003.84,0003.34
2023-12-30 10:30:00,SystemResetWarning,0830.7,5.01,000.00,021.7,020.7,000.0,030.0,023.0,8.5,0000.0,0009.44,0003.87,0003.38
2023-12-30 10:31:00,SystemResetWarning,0830.7,5.00,000.00,021.7,020.7,000.0,030.0,023.0,8.4,0000.0,0009.38,0003.90,0003.40
2023-12-30 10:32:00,SystemResetWarning,0830.7,5.00,000.00,021.7,020.7,000.0,030.0,023.0,8.4,0000.0,0008.89,0003.94,0003.42
2023-12-30 10:33:00,SystemResetWarning,0830.7,5.00,000.00,021.7,020.7,000.0,030.0,023.1,8.4,0000.0,0009.38,0004.02,0003.44
2023-12-30 10:34:00,SystemResetWarning,0830.7,5.01,000.00,021.7,020.7,000.0,030.0,023.1,8.4,0000.0,0009.35,0004.05,0003.45
2023-12-30 10:35:00,SystemResetWarning,0830.7,5.00,000.00,021.7,020.7,000.0,030.0,023.1,8.4,0000.0,0008.58,0004.12,0003.47
2023-12-30 10:36:00,SystemResetWarning,0830.7,4.99,000.00,021.7,020.7,000.0,030.0,023.1,8.4,0000.0,0009.24,0004.18,0003.48
2023-12-30 10:37:00,SystemResetWarning,0830.7,4.99,000.00,021.7,020.7,000.0,030.0,023.0,8.4,0000.0,0009.40,0004.25,0003.49
2023-12-30 10:38:00,SystemResetWarning,0830.7,5.00,000.00,021.7,020.7,000.0,030.0,023.0,8.4,0000.0,0010.10,0004.27,0003.49
2023-12-30 10:39:00,SystemResetWarning,0830.7,5.00,000.00,021.7,020.7,000.0,030.0,023.0,8.5,0000.0,0010.92,0004.27,0003.49
2023-12-30 10:40:00,SystemResetWarning,0830.7,5.00,000.00,021.6,020.7,000.0,030.0,023.0,8.5,0000.0,0011.16,0004.29,0003.49
2023-12-30 10:41:00,SystemResetWarning,0830.7,5.00,000.00,021.6,020.6,000.0,030.0,023.0,8.5,0000.0,0011.31,0004.27,0003.49
2023-12-30 10:42:00,SystemResetWarning,0830.7,5.01,000.00,021.6,020.6,000.0,030.0,023.0,8.4,0000.0,0011.81,0004.33,0003.49
2023-12-30 10:43:00,SystemResetWarning,0830.7,5.00,000.00,021.6,020.6,000.0,030.0,023.0,8.4,0000.0,0011.98,0004.38,0003.49
2023-12-30 10:44:00,SystemResetWarning,0830.7,5.00,000.00,021.6,020.6,000.0,030.0,023.0,8.5,0000.0,0012.10,0004.39,0003.49
2023-12-30 10:45:00,SystemResetWarning,0830.7,5.00,000.00,021.6,020.6,000.0,030.0,023.0,8.6,0000.0,0012.10,0004.33,0003.50
2023-12-30 10:46:00,SystemResetWarning,0830.7,5.00,000.00,021.6,020.6,000.0,030.0,023.0,8.7,0000.0,0012.51,0004.35,0003.51
2023-12-30 10:47:00,SystemResetWarning,0830.7,4.99,000.00,021.6,020.6,000.0,030.0,023.0,8.8,0000.0,0012.37,0004.36,0003.53
2023-12-30 10:48:00,SystemResetWarning,0830.7,5.00,000.00,021.6,020.6,000.0,030.0,023.0,8.8,0000.0,0012.44,0004.37,0003.54
2023-12-30 10:49:00,SystemResetWarning,0830.7,4.99,000.00,021.6,020.6,000.0,030.0,023.0,8.8,0000.0,0012.47,0004.38,0003.56
2023-12-30 10:50:00,SystemResetWarning,0830.7,5.00,000.00,021.6,020.6,000.0,029.9,023.0,8.8,0000.0,0012.38,0004.41,0003.57
2023-12-30 10:51:00,SystemResetWarning,0830.7,5.00,000.00,021.6,020.6,000.0,029.9,023.0,8.8,0000.0,0012.88,0004.44,0003.58
2023-12-30 10:52:00,SystemResetWarning,0830.7,5.00,000.00,021.6,020.6,000.0,029.9,023.0,8.8,0000.0,0012.83,0004.48,0003.58
2023-12-30 10:53:00,SystemResetWarning,0830.7,5.01,000.00,021.6,020.6,000.0,029.9,023.0,8.8,0000.0,0012.52,0004.44,0003.58
2023-12-30 10:54:00,SystemResetWarning,0830.7,5.00,000.00,021.6,020.5,000.0,029.9,022.9,8.8,0000.0,0012.61,0004.45,0003.58
2023-12-30 10:55:00,SystemResetWarning,0830.7,5.00,000.00,021.6,020.5,000.0,029.9,022.9,8.9,0000.0,0013.09,0004.48,0003.59
2023-12-30 10:56:00,SystemResetWarning,0830.7,4.99,000.00,021.6,020.5,000.0,029.9,022.9,8.9,0000.0,0012.86,0004.50,0003.59
2023-12-30 10:57:00,SystemResetWarning,0830.7,4.99,000.00,021.6,020.5,000.0,029.9,022.9,8.8,0000.0,0012.19,0004.47,0003.57
2023-12-30 10:58:00,SystemResetWarning,0830.7,5.00,000.00,021.5,020.5,000.0,029.9,022.9,8.8,0000.0,0011.90,0004.40,0003.55
2023-12-30 10:59:00,SystemResetWarning,0830.6,5.01,000.00,021.5,020.5,000.0,029.9,022.9,8.8,0000.0,0011.32,0004.32,0003.52
